Temperature
22 22 21 21 21 20 20 20 19 19 19 18 18 18 18 18 18 18 18 18 18 18 18 17 17 17 17 17 17 17 17 17 17 17 17 17 17 17 17 17 17 17 17
22 21 21 21 21 20 20 20 19 19 19 18 18 18 18 18 18 18 18 18 18 18 17 17 17 17 17 17 17 17 17 17 17 17 17 17 17 17 17 17 17 17 17
22 22 21 21 21 21 20 20 20 19 19 19 18 18 17 18 17 18 18 18 18 18 18 17 17 17 17 17 17 17 17 17 17 17 17 17 17 17 17 17 17 17 17
22 22 21 21 21 21 20 20 20 19 19 18 18 18 18 18 18 18 18 18 18 18 18 17 17 17 17 17 17 17 17 17 17 17 17 17 17 17 17 17 17 17 17
22 22 22 22 21 21 20 20 19 19 19 18 18 18 18 18 18 18 18 18 18 17 17 17 17 17 17 17 17 17 17 17 17 17 17 17 17 17 17 17 17 17 17
22 22 21 21 21 21 20 20 19 19 18 18 18 18 18 18 18 18 18 17 17 17 17 17 17 17 17 17 17 17 17 17 17 17 17 17 17 17 17 17 17 17 17
22 22 21 21 20 20 20 20 19 19 18 18 18 18 18 18 18 18 17 17 17 17 17 17 17 17 17 17 17 17 17 17 17 17 17 17 17 17 17 17 17 17 17
22 22 21 21 21 20 20 19 19 19 18 18 18 17 17 18 17 17 17 17 17 17 17 17 17 17 17 17 17 17 17 17 17 17 17 17 17 17 17 17 17 16 16
22 22 21 21 21 20 20 20 19 19 18 18 18 17 17 17 17 17 17 17 17 17 17 17 17 17 17 17 17 17 16 16 16 16 16 16 16 16 16 16 16 16 16
22 22 21 21 21 20 20 19 19 19 18 18 18 17 17 17 17 17 17 17 17 17 17 17 17 17 16 16 16 16 16 16 16 16 16 16 16 16 16 16 16 16 16
22 21 21 21 20 20 20 19 19 18 18 18 17 17 17 17 17 17 17 17 17 17 17 17 16 16 16 16 16 16 16 16 16 16 16 16 16 16 16 16 16 16 16
22 21 21 20 20 20 19 19 19 18 18 18 18 17 17 17 17 17 17 17 17 17 17 16 16 16 16 16 16 16 16 16 16 16 15 15 15 15 15 15 15 15 15
21 21 20 20 20 20 19 19 19 18 18 18 18 17 17 17 17 17 17 16 16 16 16 16 16 16 16 16 16 16 16 16 16 15 15 15 15 15 15 15 15 15 15
21 21 20 20 20 19 19 19 19 18 18 18 17 17 17 17 17 16 16 16 16 16 16 16 16 16 16 15 15 15 15 15 15 15 15 15 14 14 14 14 14 14 14
21 21 21 20 20 19 19 19 18 18 18 17 17 17 17 16 16 16 16 16 16 16 16 15 15 15 15 15 15 15 15 15 15 14 14 14 14 14 14 14 14 14 14
21 21 20 20 20 19 19 19 18 18 17 17 17 16 16 16 16 16 16 15 15 15 15 15 15 15 15 15 14 14 14 14 14 14 14 14 13 13 13 13 13 13 13
21 21 21 20 20 19 19 19 18 18 17 17 17 16 16 16 16 15 15 15 15 15 15 15 15 15 14 14 14 14 14 14 13 13 13 13 13 13 13 12 12 12 12
21 21 21 20 20 19 19 18 18 17 17 17 16 16 16 16 15 15 15 15 15 15 14 14 14 14 14 14 14 13 13 13 13 13 12 12 12 12 12 12 12 11 11
22 21 20 20 20 19 18 18 18 17 17 16 16 16 16 15 15 15 15 15 14 14 14 14 14 14 13 13 13 13 13 13 13 12 12 11 11 11 11 11 11 11 10
21 20 20 19 19 18 18 17 17 17 17 16 16 16 15 15 15 15 15 14 14 14 14 13 13 13 13 13 12 12 13 12 12 11 11 11 11 10 10 10 10 10 9
20 20 19 19 18 18 17 17 17 17 16 16 15 15 15 15 15 14 14 14 14 13 13 13 13 12 12 12 12 12 12 12 11 11 10 10 10 10 9 9 9 9 8
19 19 19 18 18 17 17 17 16 16 15 15 15 15 14 14 14 14 14 14 13 13 13 12 12 12 11 11 11 11 11 11 11 10 10 9 9 9 9 8 8 8 8
18 18 18 18 17 17 16 16 16 15 15 15 14 14 14 14 13 13 13 13 13 13 12 12 12 11 11 10 10 10 10 10 10 9 9 8 8 8 7 7 7 7 7
17 17 17 17 16 16 16 16 15 15 14 14 14 14 14 13 13 13 13 12 12 12 12 12 11 11 10 10 10 9 9 9 9 8 8 8 7 7 7 7 6 6 6
16 16 16 16 16 15 15 15 15 14 14 14 13 13 13 13 12 12 12 11 11 11 11 11 11 11 10 9 9 9 9 9 8 8 7 7 7 6 6 6 6 5 5
16 15 15 15 15 15 15 14 14 14 14 13 13 13 12 12 12 11 11 11 11 10 10 10 10 10 9 9 8 8 8 8 7 7 7 6 6 6 6 5 5 5 5
Wind_Speed
5 6 7 8 9 9 10 11 11 9 9 6 6 5 5 5 4 5 9 11 11 11 9 6 5 5 5 5 5 3 2 1 1 2 1 1 1 2 3 4 4 6 7
6 7 8 8 9 10 10 10 11 11 10 8 6 4 4 3 4 4 7 10 11 11 10 7 5 5 4 5 5 4 3 2 2 2 1 1 2 2 2 3 4 5 6
9 8 8 8 9 10 11 11 11 11 10 9 5 4 3 2 2 4 4 6 10 11 10 9 7 6 6 6 6 6 5 4 2 2 3 3 3 2 2 1 3 3 4
7 7 8 8 8 8 8 8 9 9 9 9 8 8 7 6 6 5 5 5 8 9 10 9 8 7 6 6 6 6 4 5 3 2 1 2 3 2 1 1 1 1 2
7 7 8 7 6 7 7 7 8 8 8 8 9 8 6 5 3 3 5 5 4 6 8 8 7 6 6 6 6 6 5 4 4 4 3 2 1 1 2 1 1 1 1
7 6 6 5 5 5 6 7 7 7 8 8 8 8 8 6 5 5 5 5 4 4 5 7 6 6 6 6 6 6 7 5 5 4 4 4 3 3 3 3 2 1 1
7 7 7 7 6 6 7 7 8 7 7 8 8 8 8 7 7 6 6 6 4 4 5 5 5 5 6 6 6 6 6 6 6 5 4 4 4 3 3 3 2 1 0
6 6 7 7 7 7 7 7 7 6 7 7 7 6 7 6 5 6 5 6 5 5 5 5 5 6 6 6 5 5 5 5 6 6 5 4 4 4 4 4 4 2 0
6 6 5 6 6 6 6 7 7 6 6 6 6 6 5 5 5 5 5 4 4 4 5 5 5 5 5 5 5 4 5 5 5 5 5 4 3 4 4 4 4 4 3
6 6 5 5 5 5 4 5 5 6 5 5 5 4 4 5 4 4 5 4 4 4 4 4 4 4 4 4 5 4 4 5 5 4 4 4 3 3 3 4 3 3 4
8 7 6 5 5 5 5 5 5 5 5 4 4 4 3 3 3 4 4 3 3 4 4 4 4 4 4 4 4 4 4 5 4 3 4 4 3 3 2 3 3 3 3
6 6 6 5 6 6 6 5 5 5 5 5 4 4 3 3 3 3 2 3 3 3 4 4 4 4 4 4 4 4 4 4 4 4 4 3 3 3 3 3 3 3 3
7 6 6 6 6 6 6 5 5 5 5 5 5 4 3 3 3 2 2 3 3 3 3 3 4 4 4 4 4 4 4 3 3 3 4 4 4 3 3 4 4 4 5
7 7 6 5 6 6 6 5 5 5 5 5 5 4 3 3 3 3 2 2 3 3 3 3 3 3 4 4 4 5 5 4 4 3 3 3 4 4 4 4 5 6 7
8 8 7 6 6 6 6 5 5 5 5 6 5 4 3 3 3 3 3 3 3 3 3 3 3 3 3 4 5 6 6 5 5 5 4 5 6 7 6 5 6 7 7
9 8 8 8 7 7 7 6 6 6 6 5 5 4 4 4 4 4 4 4 4 4 4 4 4 4 3 6 8 7 6 6 6 6 6 7 8 10 12 12 11 10 9
9 9 8 8 7 7 7 7 6 6 6 6 5 5 5 5 5 5 5 5 4 5 5 5 5 5 6 9 10 11 7 7 6 6 6 6 8 10 11 14 16 15 14
9 8 7 7 6 5 6 6 7 7 6 6 5 5 5 5 5 5 5 5 5 5 5 5 6 7 7 10 11 12 9 8 7 6 7 8 7 8 11 12 12 11 10
8 7 6 6 6 7 7 8 7 6 6 5 5 5 5 6 6 6 6 5 6 6 5 5 6 7 7 9 11 11 8 8 8 7 8 9 9 12 14 13 13 12 10
6 6 6 7 7 6 7 8 7 6 5 5 5 5 5 6 6 6 6 6 6 7 7 7 6 7 6 8 9 10 8 9 8 7 8 10 10 11 12 11 12 12 9
8 8 8 7 6 6 7 7 6 5 4 5 6 5 5 5 6 6 6 7 7 8 7 8 7 7 7 8 9 9 7 8 8 7 6 6 12 13 12 11 10 12 10
9 8 8 7 5 6 7 7 5 4 5 6 6 6 5 5 6 7 7 7 8 8 8 7 7 6 6 7 9 10 10 10 10 8 7 9 14 15 13 11 13 14 12
8 7 7 7 5 5 5 6 4 4 5 6 6 5 5 5 6 7 7 7 6 7 6 6 6 5 5 7 11 12 13 13 10 9 13 14 16 15 12 14 14 11 8
7 6 7 6 4 3 4 5 5 5 6 6 5 6 6 6 6 5 5 5 6 6 6 6 6 6 5 5 6 7 9 12 12 11 13 15 15 12 11 10 8 7 6
5 6 6 6 5 4 4 4 5 6 7 6 6 6 6 7 6 6 5 4 3 3 6 6 7 7 6 5 8 8 7 8 9 9 8 7 7 7 7 6 6 6 5
6 6 6 6 5 4 4 4 4 6 7 7 6 5 5 6 6 7 7 12 9 11 10 9 8 6 9 12 12 12 13 13 12 10 8 7 6 6 6 6 5 5 5
Wind_Direction
177 165 174 177 173 176 177 182 183 177 169 170 176 182 199 194 194 194 197 196 196 194 189 192 182 180 186 191 178 159 159 162 140 107 22 344 297 240 234 229 223 224 226
164 164 171 174 180 184 183 181 183 179 178 181 178 180 179 186 195 196 196 198 194 193 194 187 185 184 184 185 183 170 160 169 160 149 125 344 333 309 249 226 223 228 225
182 174 174 178 180 187 189 188 186 184 181 172 156 143 126 120 170 200 202 201 195 194 193 190 187 185 187 194 194 183 174 181 184 171 155 163 228 294 316 259 237 227 222
176 171 173 176 183 191 185 180 178 181 178 170 174 175 184 193 200 197 201 199 197 198 193 189 188 187 189 193 198 191 185 170 184 187 193 177 161 168 295 324 300 239 230
177 174 172 177 180 178 174 174 170 175 176 177 181 182 192 197 182 179 192 200 199 200 193 189 190 191 193 197 198 189 189 184 183 181 175 170 153 159 174 253 313 2 305
167 166 162 160 168 172 166 163 167 176 175 178 183 187 190 186 181 191 196 199 199 199 195 192 193 197 197 198 201 198 192 193 189 187 185 178 175 187 181 202 225 239 331
160 159 161 170 177 177 173 171 173 181 178 179 188 194 196 193 197 198 198 197 199 201 204 198 197 201 199 198 194 193 197 195 194 196 203 203 204 171 169 174 188 199 259
162 169 173 176 179 179 175 178 181 181 179 183 192 195 197 197 202 199 198 202 206 204 196 194 199 201 196 198 191 195 203 199 201 206 202 204 209 190 180 172 163 165 181
162 162 163 169 171 175 180 178 176 177 179 187 188 190 191 193 196 193 197 205 207 202 192 192 195 198 194 194 189 194 200 194 201 207 205 207 212 201 199 182 173 167 183
152 149 154 159 161 160 155 146 154 164 162 165 175 182 181 183 183 182 190 196 198 195 185 187 189 193 197 197 194 191 194 191 203 201 197 208 214 203 197 192 188 178 170
163 157 152 147 142 133 134 140 142 141 143 152 157 157 160 167 172 181 194 195 190 183 183 186 184 186 193 190 188 195 186 187 194 195 194 210 199 188 192 181 165 158 145
150 144 142 144 142 142 144 146 142 137 142 144 137 136 137 141 148 158 170 164 167 174 178 176 173 180 180 179 180 187 180 175 183 189 181 198 190 176 170 159 155 151 144
139 140 147 156 152 150 150 150 148 148 141 134 131 129 131 132 133 138 144 144 151 156 159 161 171 176 171 164 163 157 151 152 161 167 171 179 165 164 151 145 142 133 128
151 149 151 156 152 149 147 145 143 142 138 133 130 134 136 134 133 133 136 145 147 143 149 160 166 165 155 149 144 134 129 124 117 115 123 138 156 158 144 135 128 124 118
158 159 161 160 154 146 143 143 140 136 136 135 135 136 131 128 127 122 113 111 116 121 129 131 124 123 130 137 136 132 128 122 110 96 91 95 107 117 123 126 126 127 122
168 165 163 163 162 160 156 149 147 144 138 137 134 125 119 117 114 110 105 98 92 90 95 105 111 108 114 124 126 127 121 116 113 107 92 85 85 92 95 101 106 116 125
172 172 171 169 168 166 156 152 147 139 136 133 128 125 121 115 113 113 106 100 92 88 85 87 95 96 101 112 115 114 113 111 111 111 106 100 93 93 95 89 85 85 92
172 174 168 159 153 146 139 132 129 132 134 132 129 127 127 123 118 115 111 105 98 95 93 89 93 93 91 102 105 103 99 98 94 96 104 107 102 105 108 100 89 81 77
164 158 151 144 137 137 136 130 127 127 128 131 131 133 137 136 129 124 120 114 109 101 96 95 97 97 92 95 101 102 100 96 89 90 97 107 108 112 111 108 103 95 86
125 126 126 121 128 135 134 133 136 136 141 142 134 128 133 136 134 129 122 112 109 105 100 90 87 93 94 92 99 105 107 104 99 91 92 102 110 112 114 115 115 110 104
118 119 120 120 125 132 133 132 133 141 141 129 123 118 118 126 127 120 116 115 113 106 99 92 82 82 87 89 93 101 110 116 111 104 99 99 105 105 105 108 112 118 115
112 113 116 112 109 118 127 129 132 134 125 124 123 121 122 129 129 123 119 118 118 113 109 104 93 80 80 88 95 96 99 109 112 111 107 103 99 97 97 102 108 109 106
116 115 120 116 106 107 123 130 130 124 126 125 125 123 119 114 122 128 129 125 125 125 125 121 114 103 92 89 92 95 97 99 101 106 108 105 100 95 94 98 101 103 105
118 123 123 120 113 106 106 119 131 132 131 129 126 123 120 114 108 110 121 132 138 138 137 135 130 121 110 106 105 103 102 100 102 105 103 97 92 91 92 90 87 88 99
116 123 130 132 129 119 110 114 128 133 132 131 129 125 122 120 111 96 81 101 93 134 147 147 143 142 137 131 126 126 120 120 120 117 107 103 104 101 96 91 87 90 95
123 123 122 124 124 127 125 122 128 136 135 135 133 130 127 123 120 114 89 63 75 84 90 101 115 107 117 122 118 115 114 116 121 115 117 118 119 121 120 117 107 99 101
Height
1510 1513 1515 1518 1520 1522 1525 1528 1531 1534 1537 1540 1543 1545 1548 1551 1554 1556 1559 1561 1563 1565 1567 1569 1571 1572 1574 1575 1576 1578 1579 1580 1581 1582 1582 1582 1582 1583 1583 1584 1585 1585 1586
1508 1511 1513 1516 1518 1520 1523 1526 1528 1531 1535 1538 1541 1543 1547 1549 1552 1554 1556 1559 1561 1564 1566 1567 1569 1571 1572 1574 1575 1576 1577 1579 1580 1580 1581 1581 1582 1581 1582 1582 1583 1584 1585
1506 1508 1512 1514 1516 1518 1521 1523 1526 1529 1532 1536 1539 1542 1545 1547 1550 1552 1554 1556 1559 1561 1563 1565 1567 1569 1570 1571 1573 1574 1576 1577 1578 1579 1580 1580 1579 1580 1580 1580 1581 1582 1583
1504 1507 1510 1512 1515 1517 1520 1522 1525 1528 1531 1534 1536 1539 1541 1544 1546 1549 1552 1554 1556 1558 1561 1563 1565 1566 1567 1569 1571 1572 1573 1575 1576 1577 1577 1579 1578 1579 1579 1579 1579 1580 1581
1502 1506 1508 1511 1513 1516 1518 1521 1523 1526 1529 1531 1534 1537 1539 1542 1545 1547 1549 1551 1554 1556 1558 1560 1562 1563 1565 1566 1568 1569 1571 1572 1573 1574 1575 1576 1576 1577 1577 1577 1578 1578 1579
1502 1505 1508 1510 1513 1515 1517 1520 1522 1524 1527 1530 1532 1535 1537 1540 1542 1544 1546 1548 1550 1552 1554 1556 1558 1560 1561 1563 1565 1566 1568 1569 1570 1571 1572 1573 1574 1574 1575 1575 1576 1576 1577
1501 1503 1506 1509 1511 1514 1516 1518 1521 1523 1525 1528 1530 1532 1535 1537 1539 1541 1543 1545 1547 1549 1551 1552 1554 1556 1558 1560 1561 1563 1564 1566 1567 1568 1569 1570 1571 1572 1573 1573 1574 1574 1575
1500 1502 1505 1508 1510 1513 1515 1517 1519 1521 1523 1526 1528 1530 1532 1534 1536 1538 1540 1541 1543 1545 1547 1549 1551 1553 1554 1556 1558 1559 1561 1562 1563 1565 1566 1567 1568 1569 1570 1571 1571 1572 1573
1499 1502 1505 1507 1510 1512 1514 1515 1517 1519 1521 1524 1526 1528 1530 1532 1534 1535 1537 1538 1540 1542 1544 1546 1547 1549 1551 1553 1554 1556 1557 1558 1560 1561 1562 1563 1564 1565 1566 1567 1568 1570 1570
1498 1501 1504 1507 1509 1511 1513 1514 1516 1518 1520 1522 1524 1526 1527 1529 1531 1533 1534 1536 1537 1539 1541 1542 1544 1546 1547 1549 1551 1552 1554 1555 1556 1557 1558 1559 1560 1561 1563 1564 1565 1566 1567
1497 1500 1503 1506 1509 1510 1512 1513 1515 1516 1518 1520 1522 1523 1525 1527 1528 1530 1531 1533 1535 1536 1538 1539 1541 1543 1544 1546 1547 1549 1550 1552 1553 1554 1554 1555 1556 1557 1559 1560 1561 1562 1564
1496 1499 1502 1505 1507 1509 1511 1512 1513 1515 1516 1518 1520 1522 1523 1525 1526 1527 1529 1530 1532 1533 1535 1537 1538 1539 1541 1542 1544 1545 1547 1548 1549 1550 1551 1552 1553 1554 1555 1556 1557 1558 1560
1495 1499 1501 1504 1506 1508 1509 1511 1513 1514 1516 1517 1519 1520 1522 1523 1524 1525 1527 1528 1529 1531 1532 1534 1535 1536 1538 1539 1541 1542 1544 1545 1546 1547 1547 1548 1549 1551 1552 1553 1554 1555 1557
1495 1498 1500 1503 1505 1507 1508 1510 1512 1514 1515 1516 1518 1519 1520 1521 1522 1524 1525 1526 1527 1528 1530 1531 1532 1534 1535 1537 1538 1539 1541 1542 1543 1544 1545 1546 1547 1548 1549 1550 1551 1552 1554
1494 1496 1499 1501 1504 1505 1507 1509 1511 1513 1514 1516 1517 1518 1519 1520 1521 1522 1523 1524 1525 1527 1528 1529 1530 1531 1533 1534 1536 1537 1538 1539 1540 1541 1542 1543 1545 1546 1547 1548 1549 1550 1551
1491 1495 1498 1500 1502 1504 1506 1508 1510 1512 1514 1515 1517 1518 1519 1520 1521 1522 1522 1524 1525 1526 1526 1527 1528 1529 1531 1532 1533 1534 1535 1537 1538 1539 1541 1542 1543 1544 1545 1546 1547 1549 1550
1489 1493 1496 1498 1501 1503 1505 1508 1510 1512 1513 1515 1516 1517 1518 1519 1520 1521 1522 1523 1524 1525 1526 1526 1527 1528 1529 1530 1532 1533 1534 1535 1536 1538 1539 1540 1541 1543 1544 1545 1546 1547 1549
1488 1491 1495 1498 1500 1503 1505 1507 1509 1511 1513 1514 1515 1517 1518 1519 1520 1521 1522 1523 1524 1525 1526 1526 1527 1528 1529 1530 1531 1532 1532 1533 1534 1536 1538 1539 1541 1542 1543 1544 1545 1546 1548
1487 1491 1494 1497 1499 1502 1504 1506 1509 1510 1512 1513 1515 1516 1517 1519 1520 1521 1522 1523 1524 1525 1526 1526 1527 1528 1529 1530 1531 1531 1531 1532 1533 1535 1537 1538 1540 1541 1543 1544 1545 1546 1548
1487 1490 1493 1496 1499 1501 1504 1506 1507 1509 1511 1512 1514 1515 1517 1518 1519 1520 1521 1523 1524 1524 1525 1526 1527 1528 1529 1530 1530 1531 1531 1531 1532 1534 1536 1538 1539 1541 1543 1544 1545 1547 1549
1487 1490 1493 1496 1498 1501 1503 1505 1506 1508 1510 1511 1513 1515 1516 1517 1519 1520 1521 1522 1523 1524 1525 1526 1527 1528 1529 1530 1531 1531 1532 1532 1533 1534 1536 1538 1540 1541 1543 1545 1546 1548 1550
1486 1489 1492 1495 1498 1500 1502 1503 1505 1508 1509 1510 1512 1513 1515 1516 1517 1519 1520 1521 1522 1523 1524 1525 1526 1528 1529 1530 1531 1532 1533 1534 1534 1536 1537 1539 1541 1543 1544 1546 1548 1549 1551
1485 1489 1492 1494 1497 1499 1501 1502 1504 1506 1508 1509 1510 1512 1514 1515 1516 1518 1519 1520 1521 1523 1524 1525 1526 1528 1529 1530 1532 1533 1534 1535 1536 1537 1539 1541 1543 1544 1546 1548 1549 1551 1553
1485 1489 1491 1494 1496 1498 1499 1501 1503 1505 1506 1507 1509 1510 1512 1513 1515 1517 1518 1519 1521 1522 1523 1525 1526 1527 1529 1530 1532 1533 1534 1536 1537 1539 1541 1543 1545 1546 1548 1550 1551 1553 1554
1485 1489 1491 1492 1495 1497 1498 1500 1501 1503 1504 1506 1507 1508 1510 1512 1513 1515 1517 1518 1520 1522 1523 1524 1526 1527 1528 1530 1532 1534 1535 1537 1539 1541 1542 1544 1546 1548 1550 1552 1553 1555 1556
1485 1487 1490 1491 1493 1495 1497 1498 1500 1501 1503 1504 1505 1507 1509 1511 1512 1514 1515 1517 1520 1521 1523 1525 1526 1527 1530 1531 1533 1535 1537 1539 1541 1543 1544 1546 1548 1550 1551 1553 1555 1556 1558